LiveATC.Net - Listen to live air traffic control over the Internet!


ICAO: KRAS  IATA: RAS   Airport: Mustang Beach Airport
City: Port Aransas   State/Province: Texas
Country: United States   Continent: North America
KRAS METAR Weather: KRAS 191515Z AUTO 18013G22KT 7SM -RA BR SCT018 BKN032 OVC110 28/26 A2989 RMK AO2 T02840262
KRAS Flight Activity (FlightAware)
KRAS Airport Info   (iFlightPlanner)
KRAS VFR Sectional Chart   (iFlightPlanner) 
KRAS IFR Low Chart   (iFlightPlanner) 

KRAS CTAF
Feed Status: UP   Listeners: 0
Listen in your browser - HTML5 player (in browser, HTML5)
Click here to listen with your own player (launches your MP3 player)
KRAS CTAF Audio Archives
FacilityFrequency
Mustang Beach CTAF122.900

NOTICE

Unauthorized use prohibited. See LiveATC.net Terms of Service


Airport/ARTCC Code
Frequency Search
(e.g., 124.400, 128.75)
Site-wide search
 


Browse LiveATC Feeds
Top 50 LiveATC Feeds
LiveATC Feed Map
Bad Weather Areas

LiveATC FAQ
Offer LiveATC feed
Contact LiveATC.net
Press Inquiries

LiveATC on iPhone
LiveATC on Android

Windows Phone
Windows 8/10

LiveATC Mobile
(Mobile browser)

ATC Audio Archives
Interesting Recordings

LiveATC Forums


Home Page
About LiveATC.net
Make a Donation
Terms of Use
Privacy Policy

Canadian Air Freqs

AIRMETs/SIGMETs

FAA Airport Status
Nat'l Airspace Status
Arrival Demand Charts


Server Software By:
Icecast.org
Liquidsoap